• In Hungary
  • List of Countries
  • For 7 days
  • Water Temperature
  • Satellite Maps
  • Weather Map
  • News
  • Weather Widgets
  • user-avatar
    Login

    Hourly Weather Predjama

    Today, 16 December, Saturday

    Time Temperature Precipitation Wind Pressure Humidity
    00:00 0°C° 1.8 mm 3 mps 682 mmHg 89%
    01:00 -3°C° 0 mm 4 mps 683 mmHg 89%
    02:00 -2°C° 0.9 mm 3 mps 683 mmHg 89%
    03:00 -2°C° 0.9 mm 3 mps 683 mmHg 90%
    04:00 -1°C° 0.9 mm 2 mps 684 mmHg 91%
    05:00 -2°C° 0.3 mm 2 mps 684 mmHg 91%
    06:00 -2°C° 0.3 mm 2 mps 685 mmHg 91%
    07:00 0°C° 0.3 mm 1 mps 685 mmHg 91%
    08:00 +1°C° 0.2 mm 1 mps 686 mmHg 90%
    09:00 +1°C° 0.2 mm 1 mps 686 mmHg 88%
    10:00 +1°C° 0.2 mm 1 mps 687 mmHg 87%
    11:00 +1°C° 0.1 mm 2 mps 687 mmHg 86%
    12:00 +1°C° 0.1 mm 2 mps 688 mmHg 84%
    13:00 +2°C° 0.1 mm 2 mps 688 mmHg 83%
    14:00 +1°C° 0 mm 2 mps 688 mmHg 85%
    15:00 +1°C° 0 mm 2 mps 688 mmHg 86%
    16:00 -1°C° 0 mm 2 mps 689 mmHg 88%
    17:00 -2°C° 0 mm 2 mps 689 mmHg 89%
    18:00 -2°C° 0 mm 2 mps 689 mmHg 89%
    19:00 -3°C° 0 mm 2 mps 690 mmHg 89%
    20:00 -3°C° 0 mm 2 mps 690 mmHg 88%
    21:00 -4°C° 0 mm 2 mps 691 mmHg 87%
    22:00 -4°C° 0 mm 2 mps 691 mmHg 86%
    23:00 -4°C° 0 mm 2 mps 692 mmHg 85%

    Tomorrow, 17 December, Sunday

    Time Temperature Precipitation Wind Pressure Humidity
    00:00 -5°C° 0 mm 2 mps 692 mmHg 85%
    01:00 -5°C° 0 mm 2 mps 692 mmHg 84%
    02:00 -5°C° 0 mm 2 mps 692 mmHg 84%
    03:00 -5°C° 0 mm 2 mps 693 mmHg 83%
    04:00 -5°C° 0 mm 2 mps 693 mmHg 83%
    05:00 -5°C° 0 mm 2 mps 693 mmHg 83%
    06:00 -6°C° 0 mm 2 mps 694 mmHg 83%
    07:00 -6°C° 0 mm 2 mps 694 mmHg 83%
    08:00 -2°C° 0 mm 1 mps 695 mmHg 81%
    09:00 -1°C° 0 mm 1 mps 696 mmHg 79%
    10:00 0°C° 0 mm 1 mps 696 mmHg 77%
    11:00 +1°C° 0 mm 1 mps 696 mmHg 74%
    12:00 +2°C° 0 mm 1 mps 697 mmHg 70%
    13:00 +3°C° 0 mm 1 mps 697 mmHg 67%
    14:00 +2°C° 0 mm 1 mps 697 mmHg 70%
    15:00 +1°C° 0 mm 1 mps 697 mmHg 74%
    16:00 0°C° 0 mm 1 mps 697 mmHg 77%
    17:00 -1°C° 0 mm 1 mps 697 mmHg 78%
    18:00 -1°C° 0 mm 1 mps 698 mmHg 78%
    19:00 -2°C° 0 mm 1 mps 698 mmHg 79%
    20:00 -2°C° 0 mm 1 mps 699 mmHg 79%
    21:00 -3°C° 0 mm 1 mps 699 mmHg 79%
    22:00 -3°C° 0 mm 1 mps 699 mmHg 79%
    23:00 -3°C° 0 mm 1 mps 700 mmHg 78%

    Day after tomorrow, 18 December, Monday

    Time Temperature Precipitation Wind Pressure Humidity
    00:00 -3°C° 0 mm 1 mps 700 mmHg 78%
    01:00 -3°C° 0 mm 1 mps 700 mmHg 77%
    02:00 -3°C° 0 mm 1 mps 700 mmHg 77%
    03:00 -4°C° 0 mm 1 mps 700 mmHg 76%
    04:00 -4°C° 0 mm 1 mps 700 mmHg 75%
    05:00 -4°C° 0 mm 1 mps 700 mmHg 75%
    06:00 -4°C° 0 mm 1 mps 700 mmHg 74%
    07:00 -4°C° 0 mm 1 mps 700 mmHg 74%
    08:00 -3°C° 0 mm 1 mps 700 mmHg 72%
    09:00 -2°C° 0 mm 1 mps 700 mmHg 70%
    10:00 0°C° 0 mm 1 mps 700 mmHg 68%
    11:00 0°C° 0 mm 1 mps 700 mmHg 67%
    12:00 +1°C° 0 mm 1 mps 699 mmHg 65%
    13:00 +2°C° 0 mm 1 mps 699 mmHg 63%
    14:00 +1°C° 0 mm 1 mps 699 mmHg 68%
    15:00 0°C° 0 mm 1 mps 698 mmHg 73%
    16:00 -1°C° 0 mm 0 mps 698 mmHg 78%
    17:00 -1°C° 0 mm 1 mps 698 mmHg 81%
    18:00 -2°C° 0 mm 1 mps 699 mmHg 83%
    19:00 -2°C° 0 mm 1 mps 699 mmHg 85%
    20:00 -2°C° 0 mm 1 mps 699 mmHg 86%
    21:00 -3°C° 0 mm 1 mps 700 mmHg 87%
    22:00 -3°C° 0 mm 1 mps 700 mmHg 88%
    23:00 -3°C° 0 mm 1 mps 700 mmHg 87%

    19 December, Tuesday

    Time Temperature Precipitation Wind Pressure Humidity
    00:00 -3°C° 0 mm 1 mps 701 mmHg 87%
    01:00 -3°C° 0 mm 1 mps 701 mmHg 86%
    02:00 -3°C° 0 mm 1 mps 701 mmHg 86%
    03:00 -3°C° 0 mm 1 mps 702 mmHg 85%
    04:00 -3°C° 0 mm 1 mps 702 mmHg 84%
    05:00 -3°C° 0 mm 1 mps 703 mmHg 84%
    06:00 -3°C° 0 mm 1 mps 703 mmHg 84%
    07:00 -3°C° 0 mm 1 mps 704 mmHg 84%
    08:00 -2°C° 0 mm 1 mps 704 mmHg 81%
    09:00 -1°C° 0 mm 1 mps 705 mmHg 79%
    10:00 0°C° 0 mm 1 mps 706 mmHg 76%
    11:00 0°C° 0 mm 1 mps 705 mmHg 74%
    12:00 +1°C° 0 mm 1 mps 705 mmHg 71%
    13:00 +2°C° 0 mm 1 mps 705 mmHg 69%
    14:00 +1°C° 0 mm 1 mps 705 mmHg 73%
    15:00 0°C° 0 mm 1 mps 705 mmHg 78%
    16:00 -1°C° 0 mm 1 mps 705 mmHg 82%
    17:00 -2°C° 0 mm 1 mps 705 mmHg 83%
    18:00 -2°C° 0 mm 1 mps 705 mmHg 84%
    19:00 -3°C° 0 mm 1 mps 706 mmHg 85%
    20:00 -3°C° 0 mm 1 mps 706 mmHg 85%
    21:00 -3°C° 0 mm 1 mps 706 mmHg 84%
    22:00 -3°C° 0 mm 1 mps 707 mmHg 83%
    23:00 -3°C° 0 mm 1 mps 707 mmHg 83%

    20 December, Wednesday

    Time Temperature Precipitation Wind Pressure Humidity
    00:00 -3°C° 0 mm 1 mps 707 mmHg 83%
    01:00 -3°C° 0 mm 1 mps 707 mmHg 83%
    02:00 -4°C° 0 mm 1 mps 707 mmHg 83%
    03:00 -4°C° 0 mm 1 mps 707 mmHg 83%
    04:00 -4°C° 0 mm 1 mps 707 mmHg 83%
    05:00 -4°C° 0 mm 1 mps 707 mmHg 83%
    06:00 -4°C° 0 mm 1 mps 707 mmHg 83%
    07:00 -4°C° 0 mm 1 mps 707 mmHg 83%
    08:00 -3°C° 0 mm 1 mps 707 mmHg 80%
    09:00 -1°C° 0 mm 1 mps 707 mmHg 77%
    10:00 0°C° 0 mm 1 mps 708 mmHg 74%
    11:00 +1°C° 0 mm 1 mps 708 mmHg 72%
    12:00 +2°C° 0 mm 1 mps 707 mmHg 69%
    13:00 +3°C° 0 mm 1 mps 707 mmHg 67%
    14:00 +2°C° 0 mm 1 mps 707 mmHg 72%
    15:00 +1°C° 0 mm 1 mps 706 mmHg 76%
    16:00 0°C° 0 mm 1 mps 706 mmHg 81%
    17:00 0°C° 0 mm 1 mps 706 mmHg 82%
    18:00 -1°C° 0 mm 1 mps 706 mmHg 83%
    19:00 -1°C° 0 mm 1 mps 706 mmHg 84%
    20:00 -1°C° 0 mm 1 mps 706 mmHg 83%
    21:00 -1°C° 0 mm 1 mps 706 mmHg 82%
    22:00 -1°C° 0 mm 1 mps 706 mmHg 81%
    23:00 -1°C° 0 mm 1 mps 706 mmHg 80%

    21 December, Thursday

    Time Temperature Precipitation Wind Pressure Humidity
    00:00 -1°C° 0 mm 1 mps 705 mmHg 80%
    01:00 -1°C° 0 mm 1 mps 705 mmHg 79%
    02:00 -1°C° 0 mm 1 mps 705 mmHg 79%
    03:00 -1°C° 0 mm 1 mps 705 mmHg 79%
    04:00 -1°C° 0 mm 1 mps 705 mmHg 78%
    05:00 0°C° 0 mm 1 mps 705 mmHg 78%
    06:00 0°C° 0 mm 1 mps 705 mmHg 78%
    07:00 0°C° 0 mm 1 mps 705 mmHg 79%
    08:00 +1°C° 0 mm 1 mps 706 mmHg 77%
    09:00 +2°C° 0 mm 1 mps 706 mmHg 76%
    10:00 +3°C° 0 mm 1 mps 706 mmHg 75%
    11:00 +4°C° 0 mm 1 mps 706 mmHg 75%
    12:00 +5°C° 0 mm 1 mps 706 mmHg 75%
    13:00 +6°C° 0 mm 1 mps 706 mmHg 75%
    14:00 +5°C° 0 mm 1 mps 705 mmHg 79%
    15:00 +4°C° 0 mm 1 mps 705 mmHg 82%
    16:00 +3°C° 0 mm 1 mps 705 mmHg 85%
    17:00 +3°C° 0 mm 1 mps 705 mmHg 85%
    18:00 +3°C° 0 mm 1 mps 705 mmHg 84%
    19:00 +2°C° 0 mm 1 mps 705 mmHg 84%
    20:00 +2°C° 0 mm 1 mps 705 mmHg 84%
    21:00 +2°C° 0 mm 1 mps 705 mmHg 84%
    22:00 +2°C° 0 mm 1 mps 705 mmHg 84%
    23:00 +2°C° 0 mm 1 mps 705 mmHg 84%
    Show more